• Processing (Info)

  • MPEC 2014-S75 : 2014 SE145

    The following Minor Planet Electronic Circular may be linked-to from your own Web pages, but must not otherwise be redistributed electronically.

    A form allowing access to any MPEC is at the bottom of this page.


    Read MPEC 2014-S74 Read MPEC 2014-S76


    M.P.E.C. 2014-S75                                Issued 2014 Sept. 24, 14:51 UT
    
         The Minor Planet Electronic Circulars contain information on unusual
             minor planets and routine data on comets.  They are published
       on behalf of Commission 20 of the International Astronomical Union by the
              Minor Planet Center, Smithsonian Astrophysical Observatory,
                              Cambridge, MA 02138, U.S.A.
    
                 Prepared using the Tamkin Foundation Computer Network
    
                                  MPC@CFA.HARVARD.EDU
                URL https://www.minorplanetcenter.net/    ISSN 1523-6714
    
                                      2014 SE145
    
    Observations:
         K14SE5E* C2014 09 23.27622 00 39 01.67 +10 22 22.7          19.1 gNES075I41
         K14SE5E  C2014 09 23.34194 00 45 13.64 +09 47 21.4          18.9 gNES075I41
         K14SE5E KC2014 09 23.50797 01 00 12.89 +08 19 29.6          17.8 RoES075291
         K14SE5E KC2014 09 23.50820 01 00 14.11 +08 19 22.4          17.9 RoES075291
         K14SE5E KC2014 09 23.50858 01 00 16.12 +08 19 10.6          18.1 RoES075291
         K14SE5E KC2014 09 24.03032 01 43 02.72 +04 09 53.0          18.5  qES075104
         K14SE5E KC2014 09 24.03713 01 43 30.18 +04 06 58.4          18.2  qES075104
         K14SE5E KC2014 09 24.04546 01 44 03.61 +04 03 25.2          18.5  qES075104
         K14SE5E KC2014 09 24.58205 02 17 05.26 +00 55 52.4          19.0 RtES075474
         K14SE5E KC2014 09 24.58267 02 17 07.13 +00 55 39.6          19.3 RtES075474
         K14SE5E KC2014 09 24.58329 02 17 09.05 +00 55 27.2          20.8 RtES075474
         K14SE5E KC2014 09 24.58391 02 17 10.89 +00 55 15.2          20.1 RtES075474
    
    Observer details:
    104 San Marcello Pistoiese.  Observer P. Bacci.  Measurers P. Bacci, L. Tesi,
        G. Fagioli.  0.60-m f/4 reflector + CCD.
    291 LPL/Spacewatch II.  Observer T. H. Bressi.  1.8-m f/2.7 reflector + CCD.
    474 Mount John Observatory, Lake Tekapo.  Observers A. C. Gilmore,
        P. M. Kilmartin.  Measurer P. M. Kilmartin.  1.0-m f/7.7 reflector + CCD.
    I41 Palomar Mountain--PTF.  Observer Palomar Transient Factory.  Measurer
        A. Waszczak.  1.2-m f/2.44 Schmidt + CCD.
    
    Orbital elements:
    2014 SE145                                               Earth MOID = 0.0107 AU
    Epoch 2014 Dec. 9.0 TT = JDT 2457000.5                  MPC
    M  24.45713              (2000.0)            P               Q
    n   0.29623656     Peri.  172.58687     +0.99269799     +0.12061983
    a   2.2286590      Node   180.49048     -0.11679688     +0.95854843
    e   0.5463285      Incl.    8.37598     -0.03015274     +0.25813904
    P   3.33           H   27.5           G   0.15           U   6
    Residuals in seconds of arc
    140923 I41(12.4-  6.5+)   140923 291  0.2-  0.1+    140924 474  0.4-  0.3+
    140923 I41(16.2-  6.4+)   140924 104  0.0   0.2-    140924 474  0.3-  0.2-
    140923 291  0.1+  0.1-    140924 104  0.1+  0.1+    140924 474  0.5+  0.2-
    140923 291  0.0   0.0     140924 104  0.2-  0.1+    140924 474  0.2+  0.1+
    
    Ephemeris:
    2014 SE145               a,e,i = 2.23, 0.55, 8                   q = 1.0111
    Date    TT    R. A. (2000) Decl.     Delta      r     Elong.  Phase     V
    2014 08 25    17 23 53.4 +15 39 04   0.1399  1.0522   103.4    69.2    25.8
    ...
    2014 09 09    17 38 20.7 +16 56 46   0.06904 1.0162    95.5    80.7    24.5
    ...
    2014 09 17    18 23 11.6 +19 30 32   0.03001 1.0109   100.0    78.4    22.6
    ...
    2014 09 23    00 09 34.7 +12 57 16   0.01011 1.0135   166.7    13.2    18.3
    2014 09 24    01 40 48.7 +04 30 55   0.01221 1.0144   155.1    24.6    19.1
    2014 09 25    02 36 57.2 -01 15 22   0.01573 1.0155   142.2    37.2    20.0
    ...
    2014 10 01    04 12 55.4 -10 43 09   0.04381 1.0254   122.3    55.6    22.8
    ...
    2014 10 09    04 34 08.8 -12 38 19   0.08370 1.0468   122.9    53.3    24.2
    ...
    2014 10 24    04 36 18.8 -12 52 35   0.1592  1.1089   132.6    41.3    25.4
    
    A. U. Tomatic                (C) Copyright 2014 MPC           M.P.E.C. 2014-S75
    

    Read MPEC 2014-S74 Read MPEC 2014-S76


    MPEC number:

    Enter an MPEC number in one of the following forms:

    • 1997-B01 (the full form)
    • J97B01 (the packed version of the full form)
    • B01 (the abbreviated form)